owner,sensor,date,latitude,longitude,vertical_datum,wind_speed,wind_to_direction,wind_speed_of_gust,qcFlag 
FIT,ioos:station:wmo:SIPF1:1,2017-08-01T00:00:00Z,27.8620,-80.4450,1.0,6.5,153.0,99.0,'11111222,11111222,11144222' 
FIT,ioos:station:wmo:SIPF1:1,2017-08-01T00:15:00Z,27.8620,-80.4450,1.0,6.2,155.0,99.0,'11111222,11111222,11144222' 
FIT,ioos:station:wmo:SIPF1:1,2017-08-01T00:30:00Z,27.8620,-80.4450,1.0,6.8,157.0,99.0,'11111222,11111222,11144222' 
FIT,ioos:station:wmo:SIPF1:1,2017-08-01T00:45:00Z,27.8620,-80.4450,1.0,6.4,160.0,99.0,'11111222,11111222,11144222' 
FIT,ioos:station:wmo:SIPF1:1,2017-08-01T01:00:00Z,27.8620,-80.4450,1.0,5.9,161.0,99.0,'11111222,11111222,11144222' 
FIT,ioos:station:wmo:SIPF1:1,2017-08-01T01:15:00Z,27.8620,-80.4450,1.0,5.0,161.0,99.0,'11111222,11111222,11144222' 
FIT,ioos:station:wmo:SIPF1:1,2017-08-01T01:30:00Z,27.8620,-80.4450,1.0,5.7,168.0,99.0,'11111222,11111222,11144222' 
FIT,ioos:station:wmo:SIPF1:1,2017-08-01T01:45:00Z,27.8620,-80.4450,1.0,4.0,172.0,99.0,'11111222,11111222,11144222' 
FIT,ioos:station:wmo:SIPF1:1,2017-08-01T02:00:00Z,27.8620,-80.4450,1.0,3.5,180.0,99.0,'11111222,11111222,11144222' 
FIT,ioos:station:wmo:SIPF1:1,2017-08-01T02:15:00Z,27.8620,-80.4450,1.0,2.5,177.0,99.0,'11111222,11111222,11144222' 
FIT,ioos:station:wmo:SIPF1:1,2017-08-01T02:30:00Z,27.8620,-80.4450,1.0,1.4,153.0,99.0,'11111222,11111222,11144222' 
FIT,ioos:station:wmo:SIPF1:1,2017-08-01T02:45:00Z,27.8620,-80.4450,1.0,1.2,193.0,99.0,'11111222,11111222,11144222' 
FIT,ioos:station:wmo:SIPF1:1,2017-08-01T03:00:00Z,27.8620,-80.4450,1.0,1.6,252.0,99.0,'11111222,11111222,11144222' 
FIT,ioos:station:wmo:SIPF1:1,2017-08-01T03:15:00Z,27.8620,-80.4450,1.0,0.8,269.0,99.0,'11111222,11111222,11144222' 
FIT,ioos:station:wmo:SIPF1:1,2017-08-01T03:30:00Z,27.8620,-80.4450,1.0,0.7,62.0,99.0,'11111222,11111222,11144222' 
FIT,ioos:station:wmo:SIPF1:1,2017-08-01T03:45:00Z,27.8620,-80.4450,1.0,2.6,69.0,99.0,'11111222,11111222,11144222' 
FIT,ioos:station:wmo:SIPF1:1,2017-08-01T04:00:00Z,27.8620,-80.4450,1.0,3.5,107.0,99.0,'11111222,11111222,11144222' 
FIT,ioos:station:wmo:SIPF1:1,2017-08-01T04:15:00Z,27.8620,-80.4450,1.0,3.8,103.0,99.0,'11111222,11111222,11144222' 
FIT,ioos:station:wmo:SIPF1:1,2017-08-01T04:30:00Z,27.8620,-80.4450,1.0,4.2,110.0,99.0,'11111222,11111222,11144222' 
FIT,ioos:station:wmo:SIPF1:1,2017-08-01T04:45:00Z,27.8620,-80.4450,1.0,3.4,156.0,99.0,'11111222,11111222,11144222' 
FIT,ioos:station:wmo:SIPF1:1,2017-08-01T05:00:00Z,27.8620,-80.4450,1.0,3.1,186.0,99.0,'11111222,11111222,11144222' 
FIT,ioos:station:wmo:SIPF1:1,2017-08-01T05:15:00Z,27.8620,-80.4450,1.0,2.6,196.0,99.0,'11111222,11111222,11144222' 
FIT,ioos:station:wmo:SIPF1:1,2017-08-01T05:30:00Z,27.8620,-80.4450,1.0,2.3,199.0,99.0,'11111222,11111222,11144222' 
FIT,ioos:station:wmo:SIPF1:1,2017-08-01T05:45:00Z,27.8620,-80.4450,1.0,3.0,191.0,99.0,'11111222,11111222,11144222' 
FIT,ioos:station:wmo:SIPF1:1,2017-08-01T06:00:00Z,27.8620,-80.4450,1.0,4.2,194.0,99.0,'11111222,11111222,11144222' 
FIT,ioos:station:wmo:SIPF1:1,2017-08-01T06:15:00Z,27.8620,-80.4450,1.0,4.8,186.0,99.0,'11111222,11111222,11144222' 
FIT,ioos:station:wmo:SIPF1:1,2017-08-01T06:30:00Z,27.8620,-80.4450,1.0,6.1,193.0,99.0,'11111222,11111222,11144222' 
FIT,ioos:station:wmo:SIPF1:1,2017-08-01T06:45:00Z,27.8620,-80.4450,1.0,6.9,228.0,99.0,'11111222,11111222,11144222' 
FIT,ioos:station:wmo:SIPF1:1,2017-08-01T07:00:00Z,27.8620,-80.4450,1.0,6.6,237.0,99.0,'11111222,11111222,11144222' 
FIT,ioos:station:wmo:SIPF1:1,2017-08-01T07:15:00Z,27.8620,-80.4450,1.0,5.9,241.0,99.0,'11111222,11111222,11144222' 
FIT,ioos:station:wmo:SIPF1:1,2017-08-01T07:30:00Z,27.8620,-80.4450,1.0,5.3,243.0,99.0,'11111222,11111222,11144222' 
FIT,ioos:station:wmo:SIPF1:1,2017-08-01T07:45:00Z,27.8620,-80.4450,1.0,4.6,249.0,99.0,'11111222,11111222,11144222' 
FIT,ioos:station:wmo:SIPF1:1,2017-08-01T08:00:00Z,27.8620,-80.4450,1.0,5.4,249.0,99.0,'11111222,11111222,11144222' 
FIT,ioos:station:wmo:SIPF1:1,2017-08-01T08:15:00Z,27.8620,-80.4450,1.0,5.5,254.0,99.0,'11111222,11111222,11144222' 
FIT,ioos:station:wmo:SIPF1:1,2017-08-01T08:30:00Z,27.8620,-80.4450,1.0,5.9,251.0,99.0,'11111222,11111222,11144222' 
FIT,ioos:station:wmo:SIPF1:1,2017-08-01T08:45:00Z,27.8620,-80.4450,1.0,5.3,253.0,99.0,'11111222,11111222,11144222' 
FIT,ioos:station:wmo:SIPF1:1,2017-08-01T09:00:00Z,27.8620,-80.4450,1.0,4.2,253.0,99.0,'11111222,11111222,11144222' 
FIT,ioos:station:wmo:SIPF1:1,2017-08-01T09:15:00Z,27.8620,-80.4450,1.0,4.3,244.0,99.0,'11111222,11111222,11144222' 
FIT,ioos:station:wmo:SIPF1:1,2017-08-01T09:30:00Z,27.8620,-80.4450,1.0,4.4,257.0,99.0,'11111222,11111222,11144222' 
FIT,ioos:station:wmo:SIPF1:1,2017-08-01T09:45:00Z,27.8620,-80.4450,1.0,5.6,263.0,99.0,'11111222,11111222,11144222' 
FIT,ioos:station:wmo:SIPF1:1,2017-08-01T10:00:00Z,27.8620,-80.4450,1.0,5.2,275.0,99.0,'11111222,11111222,11144222' 
FIT,ioos:station:wmo:SIPF1:1,2017-08-01T10:15:00Z,27.8620,-80.4450,1.0,5.2,271.0,99.0,'11111222,11111222,11144222' 
FIT,ioos:station:wmo:SIPF1:1,2017-08-01T10:30:00Z,27.8620,-80.4450,1.0,4.5,260.0,99.0,'11111222,11111222,11144222' 
FIT,ioos:station:wmo:SIPF1:1,2017-08-01T10:45:00Z,27.8620,-80.4450,1.0,3.7,273.0,99.0,'11111222,11111222,11144222' 
FIT,ioos:station:wmo:SIPF1:1,2017-08-01T11:00:00Z,27.8620,-80.4450,1.0,3.4,272.0,99.0,'11111222,11111222,11144222' 
FIT,ioos:station:wmo:SIPF1:1,2017-08-01T11:15:00Z,27.8620,-80.4450,1.0,3.9,286.0,99.0,'11111222,11111222,11144222' 
FIT,ioos:station:wmo:SIPF1:1,2017-08-01T11:30:00Z,27.8620,-80.4450,1.0,3.7,282.0,99.0,'11111222,11111222,11144222' 
FIT,ioos:station:wmo:SIPF1:1,2017-08-01T11:45:00Z,27.8620,-80.4450,1.0,3.7,272.0,99.0,'11111222,11111222,11144222' 
FIT,ioos:station:wmo:SIPF1:1,2017-08-01T12:00:00Z,27.8620,-80.4450,1.0,3.9,267.0,99.0,'11111222,11111222,11144222' 
FIT,ioos:station:wmo:SIPF1:1,2017-08-01T12:15:00Z,27.8620,-80.4450,1.0,3.2,266.0,99.0,'11111222,11111222,11144222' 
FIT,ioos:station:wmo:SIPF1:1,2017-08-01T12:30:00Z,27.8620,-80.4450,1.0,2.9,251.0,99.0,'11111222,11111222,11144222' 
FIT,ioos:station:wmo:SIPF1:1,2017-08-01T12:45:00Z,27.8620,-80.4450,1.0,2.4,270.0,99.0,'11111222,11111222,11144222' 
FIT,ioos:station:wmo:SIPF1:1,2017-08-01T13:00:00Z,27.8620,-80.4450,1.0,2.2,276.0,99.0,'11111222,11111222,11144222' 
FIT,ioos:station:wmo:SIPF1:1,2017-08-01T13:15:00Z,27.8620,-80.4450,1.0,2.7,261.0,99.0,'11111222,11111222,11144222' 
FIT,ioos:station:wmo:SIPF1:1,2017-08-01T13:30:00Z,27.8620,-80.4450,1.0,2.8,251.0,99.0,'11111222,11111222,11144222' 
FIT,ioos:station:wmo:SIPF1:1,2017-08-01T13:45:00Z,27.8620,-80.4450,1.0,3.0,242.0,99.0,'11111222,11111222,11144222' 
FIT,ioos:station:wmo:SIPF1:1,2017-08-01T14:00:00Z,27.8620,-80.4450,1.0,3.2,237.0,99.0,'11111222,11111222,11144222' 
FIT,ioos:station:wmo:SIPF1:1,2017-08-01T14:15:00Z,27.8620,-80.4450,1.0,3.1,251.0,99.0,'11111222,11111222,11144222' 
FIT,ioos:station:wmo:SIPF1:1,2017-08-01T14:30:00Z,27.8620,-80.4450,1.0,2.6,257.0,99.0,'11111222,11111222,11144222' 
FIT,ioos:station:wmo:SIPF1:1,2017-08-01T14:45:00Z,27.8620,-80.4450,1.0,2.6,261.0,99.0,'11111222,11111222,11144222' 
FIT,ioos:station:wmo:SIPF1:1,2017-08-01T15:00:00Z,27.8620,-80.4450,1.0,3.0,247.0,99.0,'11111222,11111222,11144222' 
FIT,ioos:station:wmo:SIPF1:1,2017-08-01T15:15:00Z,27.8620,-80.4450,1.0,3.0,243.0,99.0,'11111222,11111222,11144222' 
FIT,ioos:station:wmo:SIPF1:1,2017-08-01T15:30:00Z,27.8620,-80.4450,1.0,2.6,249.0,99.0,'11111222,11111222,11144222' 
FIT,ioos:station:wmo:SIPF1:1,2017-08-01T15:45:00Z,27.8620,-80.4450,1.0,3.1,243.0,99.0,'11111222,11111222,11144222' 
FIT,ioos:station:wmo:SIPF1:1,2017-08-01T16:00:00Z,27.8620,-80.4450,1.0,3.2,267.0,99.0,'11111222,11111222,11144222' 
FIT,ioos:station:wmo:SIPF1:1,2017-08-01T16:15:00Z,27.8620,-80.4450,1.0,2.7,262.0,99.0,'11111222,11111222,11144222' 
FIT,ioos:station:wmo:SIPF1:1,2017-08-01T16:30:00Z,27.8620,-80.4450,1.0,1.1,283.0,99.0,'11111222,11111222,11144222' 
FIT,ioos:station:wmo:SIPF1:1,2017-08-01T16:45:00Z,27.8620,-80.4450,1.0,1.5,270.0,99.0,'11111222,11111222,11144222' 
FIT,ioos:station:wmo:SIPF1:1,2017-08-01T17:00:00Z,27.8620,-80.4450,1.0,0.6,284.0,99.0,'11111222,11111222,11144222' 
FIT,ioos:station:wmo:SIPF1:1,2017-08-01T17:15:00Z,27.8620,-80.4450,1.0,1.5,92.0,99.0,'11111222,11111222,11144222' 
FIT,ioos:station:wmo:SIPF1:1,2017-08-01T17:30:00Z,27.8620,-80.4450,1.0,2.9,78.0,99.0,'11111222,11111222,11144222' 
FIT,ioos:station:wmo:SIPF1:1,2017-08-01T17:45:00Z,27.8620,-80.4450,1.0,3.1,79.0,99.0,'11111222,11111222,11144222' 
FIT,ioos:station:wmo:SIPF1:1,2017-08-01T18:00:00Z,27.8620,-80.4450,1.0,3.4,79.0,99.0,'11111222,11111222,11144222' 
FIT,ioos:station:wmo:SIPF1:1,2017-08-01T18:15:00Z,27.8620,-80.4450,1.0,3.6,91.0,99.0,'11111222,11111222,11144222' 
FIT,ioos:station:wmo:SIPF1:1,2017-08-01T18:30:00Z,27.8620,-80.4450,1.0,3.7,101.0,99.0,'11111222,11111222,11144222' 
FIT,ioos:station:wmo:SIPF1:1,2017-08-01T18:45:00Z,27.8620,-80.4450,1.0,3.9,105.0,99.0,'11111222,11111222,11144222' 
FIT,ioos:station:wmo:SIPF1:1,2017-08-01T19:00:00Z,27.8620,-80.4450,1.0,3.7,106.0,99.0,'11111222,11111222,11144222' 
FIT,ioos:station:wmo:SIPF1:1,2017-08-01T19:15:00Z,27.8620,-80.4450,1.0,3.7,98.0,99.0,'11111222,11111222,11144222' 
FIT,ioos:station:wmo:SIPF1:1,2017-08-01T19:30:00Z,27.8620,-80.4450,1.0,4.2,108.0,99.0,'11111222,11111222,11144222' 
FIT,ioos:station:wmo:SIPF1:1,2017-08-01T19:45:00Z,27.8620,-80.4450,1.0,4.4,117.0,99.0,'11111222,11111222,11144222' 
FIT,ioos:station:wmo:SIPF1:1,2017-08-01T20:00:00Z,27.8620,-80.4450,1.0,4.7,122.0,99.0,'11111222,11111222,11144222' 
FIT,ioos:station:wmo:SIPF1:1,2017-08-01T20:15:00Z,27.8620,-80.4450,1.0,4.6,125.0,99.0,'11111222,11111222,11144222' 
FIT,ioos:station:wmo:SIPF1:1,2017-08-01T20:30:00Z,27.8620,-80.4450,1.0,4.8,130.0,99.0,'11111222,11111222,11144222' 
FIT,ioos:station:wmo:SIPF1:1,2017-08-01T20:45:00Z,27.8620,-80.4450,1.0,4.7,125.0,99.0,'11111222,11111222,11144222' 
FIT,ioos:station:wmo:SIPF1:1,2017-08-01T21:00:00Z,27.8620,-80.4450,1.0,4.2,114.0,99.0,'11111222,11111222,11144222' 
FIT,ioos:station:wmo:SIPF1:1,2017-08-01T21:15:00Z,27.8620,-80.4450,1.0,4.0,117.0,99.0,'11111222,11111222,11144222' 
FIT,ioos:station:wmo:SIPF1:1,2017-08-01T21:30:00Z,27.8620,-80.4450,1.0,3.9,123.0,99.0,'11111222,11111222,11144222' 
FIT,ioos:station:wmo:SIPF1:1,2017-08-01T21:45:00Z,27.8620,-80.4450,1.0,3.8,119.0,99.0,'11111222,11111222,11144222' 
FIT,ioos:station:wmo:SIPF1:1,2017-08-01T22:00:00Z,27.8620,-80.4450,1.0,3.6,121.0,99.0,'11111222,11111222,11144222' 
FIT,ioos:station:wmo:SIPF1:1,2017-08-01T22:15:00Z,27.8620,-80.4450,1.0,3.4,129.0,99.0,'11111222,11111222,11144222' 
FIT,ioos:station:wmo:SIPF1:1,2017-08-01T22:30:00Z,27.8620,-80.4450,1.0,3.1,122.0,99.0,'11111222,11111222,11144222' 
FIT,ioos:station:wmo:SIPF1:1,2017-08-01T22:45:00Z,27.8620,-80.4450,1.0,3.5,118.0,99.0,'11111222,11111222,11144222' 
FIT,ioos:station:wmo:SIPF1:1,2017-08-01T23:00:00Z,27.8620,-80.4450,1.0,3.6,117.0,99.0,'11111222,11111222,11144222' 
FIT,ioos:station:wmo:SIPF1:1,2017-08-01T23:15:00Z,27.8620,-80.4450,1.0,3.8,121.0,99.0,'11111222,11111222,11144222' 
FIT,ioos:station:wmo:SIPF1:1,2017-08-01T23:30:00Z,27.8620,-80.4450,1.0,3.9,121.0,99.0,'11111222,11111222,11144222' 
FIT,ioos:station:wmo:SIPF1:1,2017-08-01T23:45:00Z,27.8620,-80.4450,1.0,6.7,196.0,99.0,'11111222,11111222,11144222' 
FIT,ioos:station:wmo:SIPF1:1,2017-08-02T00:00:00Z,27.8620,-80.4450,1.0,8.0,234.0,99.0,'11111222,11111222,11144222' 
FIT,ioos:station:wmo:SIPF1:1,2017-08-02T00:15:00Z,27.8620,-80.4450,1.0,7.8,233.0,99.0,'11111222,11111222,11144222' 
FIT,ioos:station:wmo:SIPF1:1,2017-08-02T00:30:00Z,27.8620,-80.4450,1.0,4.7,245.0,99.0,'11111222,11111222,11144222' 
FIT,ioos:station:wmo:SIPF1:1,2017-08-02T00:45:00Z,27.8620,-80.4450,1.0,3.2,276.0,99.0,'11111222,11111222,11144222' 
FIT,ioos:station:wmo:SIPF1:1,2017-08-02T01:00:00Z,27.8620,-80.4450,1.0,2.7,270.0,99.0,'11111222,11111222,11144222' 
FIT,ioos:station:wmo:SIPF1:1,2017-08-02T01:15:00Z,27.8620,-80.4450,1.0,3.5,275.0,99.0,'11111222,11111222,11144222' 
FIT,ioos:station:wmo:SIPF1:1,2017-08-02T01:30:00Z,27.8620,-80.4450,1.0,2.9,269.0,99.0,'11111222,11111222,11144222' 
FIT,ioos:station:wmo:SIPF1:1,2017-08-02T01:45:00Z,27.8620,-80.4450,1.0,2.9,244.0,99.0,'11111222,11111222,11144222' 
FIT,ioos:station:wmo:SIPF1:1,2017-08-02T02:00:00Z,27.8620,-80.4450,1.0,4.2,249.0,99.0,'11111222,11111222,11144222' 
FIT,ioos:station:wmo:SIPF1:1,2017-08-02T02:15:00Z,27.8620,-80.4450,1.0,5.6,239.0,99.0,'11111222,11111222,11144222' 
FIT,ioos:station:wmo:SIPF1:1,2017-08-02T02:30:00Z,27.8620,-80.4450,1.0,5.6,242.0,99.0,'11111222,11111222,11144222' 
FIT,ioos:station:wmo:SIPF1:1,2017-08-02T02:45:00Z,27.8620,-80.4450,1.0,4.9,247.0,99.0,'11111222,11111222,11144222' 
FIT,ioos:station:wmo:SIPF1:1,2017-08-02T03:00:00Z,27.8620,-80.4450,1.0,4.9,243.0,99.0,'11111222,11111222,11144222' 
FIT,ioos:station:wmo:SIPF1:1,2017-08-02T03:15:00Z,27.8620,-80.4450,1.0,5.1,247.0,99.0,'11111222,11111222,11144222' 
FIT,ioos:station:wmo:SIPF1:1,2017-08-02T03:30:00Z,27.8620,-80.4450,1.0,4.2,256.0,99.0,'11111222,11111222,11144222' 
FIT,ioos:station:wmo:SIPF1:1,2017-08-02T03:45:00Z,27.8620,-80.4450,1.0,5.3,258.0,99.0,'11111222,11111222,11144222' 
FIT,ioos:station:wmo:SIPF1:1,2017-08-02T04:00:00Z,27.8620,-80.4450,1.0,4.9,258.0,99.0,'11111222,11111222,11144222' 
FIT,ioos:station:wmo:SIPF1:1,2017-08-02T04:15:00Z,27.8620,-80.4450,1.0,4.9,256.0,99.0,'11111222,11111222,11144222' 
FIT,ioos:station:wmo:SIPF1:1,2017-08-02T04:30:00Z,27.8620,-80.4450,1.0,4.1,251.0,99.0,'11111222,11111222,11144222' 
FIT,ioos:station:wmo:SIPF1:1,2017-08-02T04:45:00Z,27.8620,-80.4450,1.0,3.1,256.0,99.0,'11111222,11111222,11144222' 
FIT,ioos:station:wmo:SIPF1:1,2017-08-02T05:00:00Z,27.8620,-80.4450,1.0,2.5,256.0,99.0,'11111222,11111222,11144222' 
FIT,ioos:station:wmo:SIPF1:1,2017-08-02T05:15:00Z,27.8620,-80.4450,1.0,3.0,247.0,99.0,'11111222,11111222,11144222' 
FIT,ioos:station:wmo:SIPF1:1,2017-08-02T05:30:00Z,27.8620,-80.4450,1.0,2.5,258.0,99.0,'11111222,11111222,11144222' 
FIT,ioos:station:wmo:SIPF1:1,2017-08-02T05:45:00Z,27.8620,-80.4450,1.0,2.0,228.0,99.0,'11111222,11111222,11144222' 
FIT,ioos:station:wmo:SIPF1:1,2017-08-02T06:00:00Z,27.8620,-80.4450,1.0,2.5,222.0,99.0,'11111222,11111222,11144222' 
FIT,ioos:station:wmo:SIPF1:1,2017-08-02T06:15:00Z,27.8620,-80.4450,1.0,3.7,226.0,99.0,'11111222,11111222,11144222' 
FIT,ioos:station:wmo:SIPF1:1,2017-08-02T06:30:00Z,27.8620,-80.4450,1.0,2.8,231.0,99.0,'11111222,11111222,11144222' 
FIT,ioos:station:wmo:SIPF1:1,2017-08-02T06:45:00Z,27.8620,-80.4450,1.0,1.9,245.0,99.0,'11111222,11111222,11144222' 
FIT,ioos:station:wmo:SIPF1:1,2017-08-02T07:00:00Z,27.8620,-80.4450,1.0,1.3,278.0,99.0,'11111222,11111222,11144222' 
FIT,ioos:station:wmo:SIPF1:1,2017-08-02T07:15:00Z,27.8620,-80.4450,1.0,0.6,286.0,99.0,'11111222,11111222,11144222' 
FIT,ioos:station:wmo:SIPF1:1,2017-08-02T07:30:00Z,27.8620,-80.4450,1.0,0.5,263.0,99.0,'11111222,11111222,11144222' 
FIT,ioos:station:wmo:SIPF1:1,2017-08-02T07:45:00Z,27.8620,-80.4450,1.0,0.6,286.0,99.0,'11111222,11111222,11144222' 
FIT,ioos:station:wmo:SIPF1:1,2017-08-02T08:00:00Z,27.8620,-80.4450,1.0,1.2,208.0,99.0,'11111222,11111222,11144222' 
FIT,ioos:station:wmo:SIPF1:1,2017-08-02T08:15:00Z,27.8620,-80.4450,1.0,1.5,204.0,99.0,'11111222,11111222,11144222' 
FIT,ioos:station:wmo:SIPF1:1,2017-08-02T08:30:00Z,27.8620,-80.4450,1.0,1.8,209.0,99.0,'11111222,11111222,11144222' 
FIT,ioos:station:wmo:SIPF1:1,2017-08-02T08:45:00Z,27.8620,-80.4450,1.0,1.4,225.0,99.0,'11111222,11111222,11144222' 
FIT,ioos:station:wmo:SIPF1:1,2017-08-02T09:00:00Z,27.8620,-80.4450,1.0,1.3,223.0,99.0,'11111222,11111222,11144222' 
FIT,ioos:station:wmo:SIPF1:1,2017-08-02T09:15:00Z,27.8620,-80.4450,1.0,2.0,207.0,99.0,'11111222,11111222,11144222' 
FIT,ioos:station:wmo:SIPF1:1,2017-08-02T09:30:00Z,27.8620,-80.4450,1.0,1.8,224.0,99.0,'11111222,11111222,11144222' 
FIT,ioos:station:wmo:SIPF1:1,2017-08-02T09:45:00Z,27.8620,-80.4450,1.0,1.8,214.0,99.0,'11111222,11111222,11144222' 
FIT,ioos:station:wmo:SIPF1:1,2017-08-02T10:00:00Z,27.8620,-80.4450,1.0,2.3,214.0,99.0,'11111222,11111222,11144222' 
FIT,ioos:station:wmo:SIPF1:1,2017-08-02T10:15:00Z,27.8620,-80.4450,1.0,2.3,221.0,99.0,'11111222,11111222,11144222' 
FIT,ioos:station:wmo:SIPF1:1,2017-08-02T10:30:00Z,27.8620,-80.4450,1.0,2.4,212.0,99.0,'11111222,11111222,11144222' 
FIT,ioos:station:wmo:SIPF1:1,2017-08-02T10:45:00Z,27.8620,-80.4450,1.0,3.6,208.0,99.0,'11111222,11111222,11144222' 
FIT,ioos:station:wmo:SIPF1:1,2017-08-02T11:00:00Z,27.8620,-80.4450,1.0,3.5,205.0,99.0,'11111222,11111222,11144222' 
FIT,ioos:station:wmo:SIPF1:1,2017-08-02T11:15:00Z,27.8620,-80.4450,1.0,2.6,207.0,99.0,'11111222,11111222,11144222' 
FIT,ioos:station:wmo:SIPF1:1,2017-08-02T11:30:00Z,27.8620,-80.4450,1.0,3.0,213.0,99.0,'11111222,11111222,11144222' 
FIT,ioos:station:wmo:SIPF1:1,2017-08-02T11:45:00Z,27.8620,-80.4450,1.0,2.1,217.0,99.0,'11111222,11111222,11144222' 
FIT,ioos:station:wmo:SIPF1:1,2017-08-02T12:00:00Z,27.8620,-80.4450,1.0,2.2,218.0,99.0,'11111222,11111222,11144222' 
FIT,ioos:station:wmo:SIPF1:1,2017-08-02T12:15:00Z,27.8620,-80.4450,1.0,1.9,220.0,99.0,'11111222,11111222,11144222' 
FIT,ioos:station:wmo:SIPF1:1,2017-08-02T12:30:00Z,27.8620,-80.4450,1.0,2.7,217.0,99.0,'11111222,11111222,11144222' 
FIT,ioos:station:wmo:SIPF1:1,2017-08-02T12:45:00Z,27.8620,-80.4450,1.0,3.5,219.0,99.0,'11111222,11111222,11144222' 
FIT,ioos:station:wmo:SIPF1:1,2017-08-02T13:00:00Z,27.8620,-80.4450,1.0,3.5,215.0,99.0,'11111222,11111222,11144222' 
FIT,ioos:station:wmo:SIPF1:1,2017-08-02T13:15:00Z,27.8620,-80.4450,1.0,3.4,219.0,99.0,'11111222,11111222,11144222' 
FIT,ioos:station:wmo:SIPF1:1,2017-08-02T13:30:00Z,27.8620,-80.4450,1.0,2.9,208.0,99.0,'11111222,11111222,11144222' 
FIT,ioos:station:wmo:SIPF1:1,2017-08-02T13:45:00Z,27.8620,-80.4450,1.0,2.3,230.0,99.0,'11111222,11111222,11144222' 
FIT,ioos:station:wmo:SIPF1:1,2017-08-02T14:00:00Z,27.8620,-80.4450,1.0,2.4,211.0,99.0,'11111222,11111222,11144222' 
FIT,ioos:station:wmo:SIPF1:1,2017-08-02T14:15:00Z,27.8620,-80.4450,1.0,2.7,176.0,99.0,'11111222,11111222,11144222' 
FIT,ioos:station:wmo:SIPF1:1,2017-08-02T14:30:00Z,27.8620,-80.4450,1.0,2.7,179.0,99.0,'11111222,11111222,11144222' 
FIT,ioos:station:wmo:SIPF1:1,2017-08-02T14:45:00Z,27.8620,-80.4450,1.0,2.6,184.0,99.0,'11111222,11111222,11144222' 
FIT,ioos:station:wmo:SIPF1:1,2017-08-02T15:00:00Z,27.8620,-80.4450,1.0,2.7,138.0,99.0,'11111222,11111222,11144222' 
FIT,ioos:station:wmo:SIPF1:1,2017-08-02T15:15:00Z,27.8620,-80.4450,1.0,3.7,125.0,99.0,'11111222,11111222,11144222' 
FIT,ioos:station:wmo:SIPF1:1,2017-08-02T15:30:00Z,27.8620,-80.4450,1.0,3.7,118.0,99.0,'11111222,11111222,11144222' 
FIT,ioos:station:wmo:SIPF1:1,2017-08-02T15:45:00Z,27.8620,-80.4450,1.0,4.1,126.0,99.0,'11111222,11111222,11144222' 
FIT,ioos:station:wmo:SIPF1:1,2017-08-02T16:00:00Z,27.8620,-80.4450,1.0,3.9,123.0,99.0,'11111222,11111222,11144222' 
FIT,ioos:station:wmo:SIPF1:1,2017-08-02T16:15:00Z,27.8620,-80.4450,1.0,3.8,122.0,99.0,'11111222,11111222,11144222' 
FIT,ioos:station:wmo:SIPF1:1,2017-08-02T16:30:00Z,27.8620,-80.4450,1.0,3.3,127.0,99.0,'11111222,11111222,11144222' 
FIT,ioos:station:wmo:SIPF1:1,2017-08-02T16:45:00Z,27.8620,-80.4450,1.0,4.3,128.0,99.0,'11111222,11111222,11144222' 
FIT,ioos:station:wmo:SIPF1:1,2017-08-02T17:00:00Z,27.8620,-80.4450,1.0,4.0,123.0,99.0,'11111222,11111222,11144222' 
FIT,ioos:station:wmo:SIPF1:1,2017-08-02T17:15:00Z,27.8620,-80.4450,1.0,4.1,121.0,99.0,'11111222,11111222,11144222' 
FIT,ioos:station:wmo:SIPF1:1,2017-08-02T17:30:00Z,27.8620,-80.4450,1.0,4.8,128.0,99.0,'11111222,11111222,11144222' 
FIT,ioos:station:wmo:SIPF1:1,2017-08-02T17:45:00Z,27.8620,-80.4450,1.0,4.2,139.0,99.0,'11111222,11111222,11144222' 
FIT,ioos:station:wmo:SIPF1:1,2017-08-02T18:00:00Z,27.8620,-80.4450,1.0,4.8,136.0,99.0,'11111222,11111222,11144222' 
FIT,ioos:station:wmo:SIPF1:1,2017-08-02T18:15:00Z,27.8620,-80.4450,1.0,5.4,138.0,99.0,'11111222,11111222,11144222' 
FIT,ioos:station:wmo:SIPF1:1,2017-08-02T18:30:00Z,27.8620,-80.4450,1.0,5.5,137.0,99.0,'11111222,11111222,11144222' 
FIT,ioos:station:wmo:SIPF1:1,2017-08-02T18:45:00Z,27.8620,-80.4450,1.0,6.1,141.0,99.0,'11111222,11111222,11144222' 
FIT,ioos:station:wmo:SIPF1:1,2017-08-02T19:00:00Z,27.8620,-80.4450,1.0,6.1,144.0,99.0,'11111222,11111222,11144222' 
FIT,ioos:station:wmo:SIPF1:1,2017-08-02T19:15:00Z,27.8620,-80.4450,1.0,6.8,144.0,99.0,'11111222,11111222,11144222' 
FIT,ioos:station:wmo:SIPF1:1,2017-08-02T19:30:00Z,27.8620,-80.4450,1.0,6.7,148.0,99.0,'11111222,11111222,11144222' 
FIT,ioos:station:wmo:SIPF1:1,2017-08-02T19:45:00Z,27.8620,-80.4450,1.0,7.2,150.0,99.0,'11111222,11111222,11144222' 
FIT,ioos:station:wmo:SIPF1:1,2017-08-02T20:00:00Z,27.8620,-80.4450,1.0,7.3,151.0,99.0,'11111222,11111222,11144222' 
FIT,ioos:station:wmo:SIPF1:1,2017-08-02T20:15:00Z,27.8620,-80.4450,1.0,7.3,156.0,99.0,'11111222,11111222,11144222' 
FIT,ioos:station:wmo:SIPF1:1,2017-08-02T20:30:00Z,27.8620,-80.4450,1.0,7.9,164.0,99.0,'11111222,11111222,11144222' 
FIT,ioos:station:wmo:SIPF1:1,2017-08-02T20:45:00Z,27.8620,-80.4450,1.0,5.6,243.0,99.0,'11111222,11111222,11144222' 
FIT,ioos:station:wmo:SIPF1:1,2017-08-02T21:00:00Z,27.8620,-80.4450,1.0,5.6,342.0,99.0,'11111222,11111222,11144222' 
FIT,ioos:station:wmo:SIPF1:1,2017-08-02T21:15:00Z,27.8620,-80.4450,1.0,6.2,3.0,99.0,'11111222,11111222,11144222' 
FIT,ioos:station:wmo:SIPF1:1,2017-08-02T21:30:00Z,27.8620,-80.4450,1.0,3.7,353.0,99.0,'11111222,11111222,11144222' 
FIT,ioos:station:wmo:SIPF1:1,2017-08-02T21:45:00Z,27.8620,-80.4450,1.0,2.7,14.0,99.0,'11111222,11111222,11144222' 
FIT,ioos:station:wmo:SIPF1:1,2017-08-02T22:00:00Z,27.8620,-80.4450,1.0,3.4,14.0,99.0,'11111222,11111222,11144222' 
FIT,ioos:station:wmo:SIPF1:1,2017-08-02T22:15:00Z,27.8620,-80.4450,1.0,1.9,14.0,99.0,'11111222,11111222,11144222' 
FIT,ioos:station:wmo:SIPF1:1,2017-08-02T22:30:00Z,27.8620,-80.4450,1.0,0.4,332.0,99.0,'11111222,11111222,11144222' 
FIT,ioos:station:wmo:SIPF1:1,2017-08-02T22:45:00Z,27.8620,-80.4450,1.0,1.1,62.0,99.0,'11111222,11111222,11144222' 
FIT,ioos:station:wmo:SIPF1:1,2017-08-02T23:00:00Z,27.8620,-80.4450,1.0,1.5,238.0,99.0,'11111222,11111222,11144222' 
FIT,ioos:station:wmo:SIPF1:1,2017-08-02T23:15:00Z,27.8620,-80.4450,1.0,5.3,239.0,99.0,'11111222,11111222,11144222' 
FIT,ioos:station:wmo:SIPF1:1,2017-08-02T23:30:00Z,27.8620,-80.4450,1.0,4.3,254.0,99.0,'11111222,11111222,11144222' 
FIT,ioos:station:wmo:SIPF1:1,2017-08-02T23:45:00Z,27.8620,-80.4450,1.0,2.2,266.0,99.0,'11111222,11111222,11144222' 
FIT,ioos:station:wmo:SIPF1:1,2017-08-03T00:00:00Z,27.8620,-80.4450,1.0,1.9,242.0,99.0,'11111222,11111222,11144222' 
FIT,ioos:station:wmo:SIPF1:1,2017-08-03T00:15:00Z,27.8620,-80.4450,1.0,2.0,243.0,99.0,'11111222,11111222,11144222' 
FIT,ioos:station:wmo:SIPF1:1,2017-08-03T00:30:00Z,27.8620,-80.4450,1.0,3.2,224.0,99.0,'11111222,11111222,11144222' 
FIT,ioos:station:wmo:SIPF1:1,2017-08-03T00:45:00Z,27.8620,-80.4450,1.0,3.3,221.0,99.0,'11111222,11111222,11144222' 
FIT,ioos:station:wmo:SIPF1:1,2017-08-03T01:00:00Z,27.8620,-80.4450,1.0,2.9,211.0,99.0,'11111222,11111222,11144222' 
FIT,ioos:station:wmo:SIPF1:1,2017-08-03T01:15:00Z,27.8620,-80.4450,1.0,2.6,190.0,99.0,'11111222,11111222,11144222' 
FIT,ioos:station:wmo:SIPF1:1,2017-08-03T01:30:00Z,27.8620,-80.4450,1.0,2.7,194.0,99.0,'11111222,11111222,11144222' 
FIT,ioos:station:wmo:SIPF1:1,2017-08-03T01:45:00Z,27.8620,-80.4450,1.0,2.9,189.0,99.0,'11111222,11111222,11144222' 
FIT,ioos:station:wmo:SIPF1:1,2017-08-03T02:00:00Z,27.8620,-80.4450,1.0,2.5,225.0,99.0,'11111222,11111222,11144222' 
FIT,ioos:station:wmo:SIPF1:1,2017-08-03T02:15:00Z,27.8620,-80.4450,1.0,3.6,223.0,99.0,'11111222,11111222,11144222' 
FIT,ioos:station:wmo:SIPF1:1,2017-08-03T02:30:00Z,27.8620,-80.4450,1.0,3.2,213.0,99.0,'11111222,11111222,11144222' 
FIT,ioos:station:wmo:SIPF1:1,2017-08-03T02:45:00Z,27.8620,-80.4450,1.0,2.8,202.0,99.0,'11111222,11111222,11144222' 
FIT,ioos:station:wmo:SIPF1:1,2017-08-03T03:00:00Z,27.8620,-80.4450,1.0,2.6,205.0,99.0,'11111222,11111222,11144222' 
FIT,ioos:station:wmo:SIPF1:1,2017-08-03T03:15:00Z,27.8620,-80.4450,1.0,2.5,207.0,99.0,'11111222,11111222,11144222' 